When you browse on this site, cookies collect data to enhance your experience and personalize the content and advertising you see.
Visit our Privacy Policy to learn more. By continuing to use the site, you agree to this use of cookies and data.
  • Em Portugal
  • Lista de países
  • Para 7 dias
  • Temperatura da água
  • Mapas de satélite
  • Mapa do tempo
  • Widgets de tempo
  • user-avatar
    Iniciar Sessão

    Previsão horária em Dzhilihur

    Hoje, 24 Junho, Segunda-feira

    Tempo Temperatura Precipitação Vento Pressão Humidade
    00:00 +15°C° 0 mm 1 m/s 624 mmHg 81%
    01:00 +15°C° 0 mm 1 m/s 624 mmHg 80%
    02:00 +15°C° 0 mm 1 m/s 624 mmHg 78%
    03:00 +15°C° 0 mm 1 m/s 624 mmHg 75%
    04:00 +18°C° 0 mm 1 m/s 625 mmHg 72%
    05:00 +19°C° 0 mm 1 m/s 626 mmHg 70%
    06:00 +21°C° 0 mm 1 m/s 626 mmHg 67%
    07:00 +22°C° 0 mm 1 m/s 627 mmHg 63%
    08:00 +24°C° 0 mm 1 m/s 627 mmHg 59%
    09:00 +25°C° 0 mm 2 m/s 628 mmHg 54%
    10:00 +25°C° 0.9 mm 2 m/s 628 mmHg 56%
    11:00 +26°C° 0.9 mm 2 m/s 628 mmHg 58%
    12:00 +26°C° 0.9 mm 2 m/s 628 mmHg 60%
    13:00 +26°C° 0.9 mm 2 m/s 627 mmHg 59%
    14:00 +26°C° 0.9 mm 2 m/s 627 mmHg 58%
    15:00 +25°C° 0 mm 2 m/s 627 mmHg 60%
    16:00 +25°C° 0.4 mm 2 m/s 627 mmHg 62%
    17:00 +24°C° 0.4 mm 1 m/s 627 mmHg 64%
    18:00 +23°C° 0.4 mm 1 m/s 626 mmHg 66%
    19:00 +21°C° 0.1 mm 1 m/s 626 mmHg 70%
    20:00 +19°C° 0.1 mm 1 m/s 625 mmHg 73%
    21:00 +18°C° 0.1 mm 1 m/s 625 mmHg 76%
    22:00 +16°C° 0 mm 1 m/s 625 mmHg 75%
    23:00 +16°C° 0 mm 1 m/s 625 mmHg 75%

    Amanhã, 25 Junho, Terça-feira

    Tempo Temperatura Precipitação Vento Pressão Humidade
    00:00 +16°C° 0 mm 1 m/s 625 mmHg 74%
    01:00 +16°C° 0 mm 1 m/s 625 mmHg 73%
    02:00 +15°C° 0 mm 1 m/s 625 mmHg 72%
    03:00 +15°C° 0 mm 1 m/s 625 mmHg 71%
    04:00 +18°C° 0 mm 1 m/s 625 mmHg 68%
    05:00 +19°C° 0 mm 1 m/s 626 mmHg 65%
    06:00 +21°C° 0 mm 1 m/s 627 mmHg 62%
    07:00 +22°C° 0 mm 1 m/s 627 mmHg 57%
    08:00 +24°C° 0 mm 1 m/s 628 mmHg 52%
    09:00 +25°C° 0 mm 2 m/s 628 mmHg 47%
    10:00 +25°C° 0.3 mm 2 m/s 628 mmHg 48%
    11:00 +26°C° 0.3 mm 2 m/s 628 mmHg 49%
    12:00 +26°C° 0.3 mm 3 m/s 628 mmHg 50%
    13:00 +26°C° 0.6 mm 2 m/s 628 mmHg 49%
    14:00 +26°C° 0.6 mm 2 m/s 628 mmHg 49%
    15:00 +26°C° 0.6 mm 2 m/s 628 mmHg 49%
    16:00 +25°C° 0.2 mm 2 m/s 628 mmHg 52%
    17:00 +25°C° 0.2 mm 2 m/s 628 mmHg 54%
    18:00 +24°C° 0.2 mm 2 m/s 627 mmHg 57%
    19:00 +22°C° 0 mm 1 m/s 627 mmHg 59%
    20:00 +20°C° 0 mm 1 m/s 626 mmHg 62%
    21:00 +16°C° 0 mm 1 m/s 626 mmHg 64%
    22:00 +16°C° 0 mm 1 m/s 625 mmHg 65%
    23:00 +15°C° 0 mm 1 m/s 625 mmHg 66%

    Depois de amanhã, 26 Junho, Quarta-feira

    Tempo Temperatura Precipitação Vento Pressão Humidade
    00:00 +15°C° 0 mm 1 m/s 625 mmHg 67%
    01:00 +15°C° 0 mm 1 m/s 625 mmHg 67%
    02:00 +15°C° 0 mm 1 m/s 625 mmHg 66%
    03:00 +15°C° 0 mm 1 m/s 625 mmHg 65%
    04:00 +16°C° 0 mm 1 m/s 626 mmHg 63%
    05:00 +19°C° 0 mm 1 m/s 626 mmHg 62%
    06:00 +20°C° 0 mm 1 m/s 627 mmHg 60%
    07:00 +22°C° 0 mm 1 m/s 628 mmHg 56%
    08:00 +23°C° 0 mm 1 m/s 628 mmHg 52%
    09:00 +24°C° 0 mm 1 m/s 629 mmHg 48%
    10:00 +25°C° 0.3 mm 2 m/s 629 mmHg 51%
    11:00 +25°C° 0.3 mm 2 m/s 629 mmHg 53%
    12:00 +25°C° 0.3 mm 3 m/s 629 mmHg 56%
    13:00 +25°C° 0.9 mm 2 m/s 629 mmHg 57%
    14:00 +25°C° 0.9 mm 2 m/s 628 mmHg 57%
    15:00 +24°C° 0.9 mm 2 m/s 628 mmHg 58%
    16:00 +24°C° 0.5 mm 2 m/s 628 mmHg 61%
    17:00 +23°C° 0.5 mm 2 m/s 627 mmHg 63%
    18:00 +22°C° 0.5 mm 1 m/s 627 mmHg 66%
    19:00 +20°C° 0.1 mm 1 m/s 626 mmHg 72%
    20:00 +16°C° 0.1 mm 0 m/s 626 mmHg 77%
    21:00 +14°C° 0.1 mm 0 m/s 625 mmHg 83%
    22:00 +14°C° 0 mm 0 m/s 625 mmHg 84%
    23:00 +13°C° 0 mm 0 m/s 625 mmHg 85%

    27 Junho, Quinta-feira

    Tempo Temperatura Precipitação Vento Pressão Humidade
    00:00 +13°C° 0 mm 0 m/s 625 mmHg 86%
    01:00 +13°C° 0 mm 0 m/s 624 mmHg 86%
    02:00 +13°C° 0 mm 0 m/s 624 mmHg 85%
    03:00 +14°C° 0 mm 1 m/s 624 mmHg 85%
    04:00 +14°C° 0.1 mm 0 m/s 625 mmHg 82%
    05:00 +15°C° 0.1 mm 0 m/s 625 mmHg 79%
    06:00 +16°C° 0.1 mm 0 m/s 626 mmHg 75%
    07:00 +19°C° 0.7 mm 1 m/s 626 mmHg 74%
    08:00 +20°C° 0.7 mm 1 m/s 626 mmHg 73%
    09:00 +20°C° 0.7 mm 2 m/s 626 mmHg 72%
    10:00 +20°C° 1 mm 2 m/s 626 mmHg 73%
    11:00 +20°C° 1 mm 2 m/s 626 mmHg 74%
    12:00 +21°C° 1 mm 2 m/s 626 mmHg 74%
    13:00 +20°C° 0.9 mm 2 m/s 625 mmHg 75%
    14:00 +20°C° 0.9 mm 2 m/s 625 mmHg 76%
    15:00 +20°C° 0.9 mm 2 m/s 625 mmHg 77%
    16:00 +20°C° 0.2 mm 2 m/s 625 mmHg 79%
    17:00 +20°C° 0.2 mm 2 m/s 624 mmHg 80%
    18:00 +19°C° 0.2 mm 2 m/s 624 mmHg 81%
    19:00 +19°C° 0.1 mm 1 m/s 623 mmHg 85%
    20:00 +16°C° 0.1 mm 1 m/s 623 mmHg 89%
    21:00 +15°C° 0.1 mm 1 m/s 622 mmHg 92%
    22:00 +14°C° 0 mm 1 m/s 622 mmHg 92%
    23:00 +14°C° 0 mm 1 m/s 622 mmHg 91%

    28 Junho, Sexta-feira

    Tempo Temperatura Precipitação Vento Pressão Humidade
    00:00 +13°C° 0 mm 1 m/s 621 mmHg 90%
    01:00 +13°C° 0 mm 1 m/s 621 mmHg 89%
    02:00 +13°C° 0 mm 1 m/s 621 mmHg 88%
    03:00 +13°C° 0 mm 1 m/s 620 mmHg 87%
    04:00 +14°C° 0 mm 1 m/s 621 mmHg 85%
    05:00 +16°C° 0 mm 1 m/s 621 mmHg 83%
    06:00 +18°C° 0 mm 1 m/s 621 mmHg 81%
    07:00 +18°C° 0 mm 2 m/s 621 mmHg 77%
    08:00 +19°C° 0 mm 2 m/s 622 mmHg 73%
    09:00 +21°C° 0 mm 2 m/s 622 mmHg 69%
    10:00 +21°C° 0.6 mm 2 m/s 622 mmHg 67%
    11:00 +23°C° 0.6 mm 2 m/s 622 mmHg 65%
    12:00 +23°C° 0.6 mm 2 m/s 622 mmHg 63%
    13:00 +23°C° 0.9 mm 2 m/s 621 mmHg 64%
    14:00 +23°C° 0.9 mm 2 m/s 621 mmHg 65%
    15:00 +23°C° 0.9 mm 2 m/s 620 mmHg 66%
    16:00 +23°C° 0.7 mm 2 m/s 620 mmHg 69%
    17:00 +21°C° 0.7 mm 2 m/s 620 mmHg 73%
    18:00 +21°C° 0.7 mm 1 m/s 620 mmHg 76%
    19:00 +20°C° 0 mm 1 m/s 619 mmHg 77%
    20:00 +19°C° 0 mm 1 m/s 619 mmHg 78%
    21:00 +16°C° 0 mm 1 m/s 619 mmHg 80%
    22:00 +16°C° 0.1 mm 1 m/s 619 mmHg 81%
    23:00 +16°C° 0.1 mm 1 m/s 619 mmHg 83%

    29 Junho, Sábado

    Tempo Temperatura Precipitação Vento Pressão Humidade
    00:00 +16°C° 0.1 mm 1 m/s 619 mmHg 85%
    01:00 +16°C° 0.1 mm 1 m/s 619 mmHg 85%
    02:00 +16°C° 0.1 mm 1 m/s 619 mmHg 85%
    03:00 +15°C° 0.1 mm 0 m/s 619 mmHg 86%
    04:00 +15°C° 0 mm 0 m/s 619 mmHg 85%
    05:00 +16°C° 0 mm 0 m/s 619 mmHg 85%
    06:00 +16°C° 0 mm 0 m/s 619 mmHg 85%
    07:00 +19°C° 0.1 mm 1 m/s 619 mmHg 81%
    08:00 +20°C° 0.1 mm 1 m/s 620 mmHg 77%
    09:00 +20°C° 0.1 mm 2 m/s 620 mmHg 73%
    10:00 +20°C° 0.7 mm 2 m/s 620 mmHg 72%
    11:00 +21°C° 0.7 mm 2 m/s 620 mmHg 72%
    12:00 +21°C° 0.7 mm 3 m/s 620 mmHg 71%
    13:00 +21°C° 0.7 mm 3 m/s 620 mmHg 71%
    14:00 +21°C° 0.7 mm 3 m/s 620 mmHg 70%
    15:00 +21°C° 0.7 mm 2 m/s 619 mmHg 69%
    16:00 +21°C° 0.5 mm 2 m/s 619 mmHg 72%
    17:00 +20°C° 0.5 mm 2 m/s 619 mmHg 75%
    18:00 +20°C° 0.5 mm 2 m/s 619 mmHg 78%
    19:00 +19°C° 0.4 mm 2 m/s 619 mmHg 82%
    20:00 +18°C° 0.4 mm 1 m/s 619 mmHg 86%
    21:00 +16°C° 0.4 mm 1 m/s 619 mmHg 90%
    22:00 +16°C° 0.6 mm 1 m/s 619 mmHg 92%
    23:00 +16°C° 0.6 mm 1 m/s 619 mmHg 93%
    Mostrar mais